Simultaneous Nadir Overpasses (SNOs) Predictions

Prediction of SNOs between NOAA-20 and METOP-B Satellite Orbit:

Table of predicted SNOs for the next 14.0 days since TLE Epoch: 11/2/2019
Index Date (NOAA-20) Time (NOAA-20) Lat,Lon (NOAA-20) SZA (NOAA-20 ) Date (METOP-B) Time (METOP-B) Lat,Lon (METOP-B) SZA (METOP-B ) Distance(km) Time Diff (sec)
1 11/13/2019 01:34:57 73.47, 146.45 91.30 11/13/2019 01:36:03 73.44, 149.31 91.20 90.80 66
2 11/13/2019 02:25:40 -73.41, -46.11 88.76 11/13/2019 02:26:47 -73.34, -43.59 88.89 80.71 67
3 11/13/2019 03:16:21 73.17, 121.74 91.00 11/13/2019 03:17:31 73.12, 123.26 90.91 49.53 70
4 11/13/2019 04:07:03 -73.07, -70.72 89.10 11/13/2019 04:08:15 -73.02, -69.63 89.18 35.82 72
5 11/13/2019 04:57:45 72.87, 97.00 90.71 11/13/2019 04:58:58 72.84, 97.34 90.67 11.47 73
6 11/13/2019 05:48:28 -72.82, -95.57 89.34 11/13/2019 05:49:41 -72.79, -95.44 89.38 5.10 73
7 11/13/2019 06:39:13 72.77, 71.83 90.63 11/13/2019 06:40:21 72.77, 71.85 90.62 0.77 68
8 11/13/2019 07:29:57 -72.77,-120.85 89.37 11/13/2019 07:31:03 -72.78,-120.82 89.38 1.06 66
9 11/13/2019 08:20:43 72.78, 46.45 90.65 11/13/2019 08:21:43 72.75, 46.47 90.62 3.00 60
10 11/13/2019 09:11:27 -72.78,-146.23 89.35 11/13/2019 09:12:25 -72.76,-146.20 89.38 2.67 58
11 11/13/2019 10:02:12 72.73, 21.17 90.62 11/13/2019 10:03:05 72.73, 21.09 90.62 2.41 53
12 11/13/2019 10:52:56 -72.73,-171.51 89.38 11/13/2019 10:53:47 -72.74,-171.58 89.37 2.19 51
13 11/13/2019 11:43:42 72.74, -4.22 90.65 11/13/2019 11:44:26 72.77, -4.18 90.67 3.31 44
14 11/13/2019 12:34:26 -72.74, 163.10 89.35 11/13/2019 12:35:09 -72.72, 163.04 89.37 2.88 43
15 11/13/2019 13:25:12 72.74, -29.60 90.67 11/13/2019 13:25:48 72.75, -29.56 90.67 1.44 36
16 11/13/2019 14:15:56 -72.74, 137.72 89.33 11/13/2019 14:16:30 -72.75, 137.77 89.33 1.87 34
17 11/13/2019 15:06:42 72.75, -54.99 90.69 11/13/2019 15:07:10 72.73, -54.94 90.67 2.77 28
18 11/13/2019 15:57:26 -72.75, 112.33 89.31 11/13/2019 15:57:52 -72.73, 112.39 89.33 2.58 26
19 11/13/2019 16:48:11 72.70, -80.27 90.66 11/13/2019 16:48:32 72.71, -80.32 90.67 1.88 21
20 11/13/2019 17:38:55 -72.70, 87.05 89.33 11/13/2019 17:39:14 -72.71, 87.01 89.33 1.85 19
21 11/13/2019 18:29:41 72.71,-105.65 90.69 11/13/2019 18:29:54 72.69,-105.70 90.67 2.57 13
22 11/13/2019 19:20:25 -72.71, 61.67 89.31 11/13/2019 19:20:36 -72.69, 61.63 89.32 2.02 11
23 11/13/2019 20:11:11 72.71,-131.03 90.71 11/13/2019 20:11:15 72.72,-130.97 90.72 2.25 4
24 11/13/2019 21:01:55 -72.71, 36.29 89.29 11/13/2019 21:01:57 -72.72, 36.36 89.28 2.72 2
25 11/13/2019 21:52:41 72.72,-156.42 90.74 11/13/2019 21:52:37 72.70,-156.35 90.72 2.81 4
26 11/13/2019 22:43:25 -72.71, 10.90 89.26 11/13/2019 22:43:19 -72.70, 10.98 89.28 2.78 6
27 11/13/2019 23:34:10 72.67, 178.30 90.71 11/13/2019 23:33:59 72.68, 178.27 90.72 1.64 11
28 11/14/2019 00:24:54 -72.67, -14.38 89.29 11/14/2019 00:24:41 -72.68, -14.40 89.28 1.88 13
29 11/14/2019 01:15:40 72.68, 152.92 90.73 11/14/2019 01:15:21 72.66, 152.89 90.72 1.73 19
30 11/14/2019 02:06:24 -72.67, -39.76 89.27 11/14/2019 02:06:03 -72.67, -39.78 89.28 1.16 21
31 11/14/2019 02:57:10 72.68, 127.53 90.75 11/14/2019 02:56:42 72.69, 127.61 90.77 3.10 28
32 11/14/2019 03:47:54 -72.68, -65.15 89.25 11/14/2019 03:47:24 -72.70, -65.06 89.23 3.59 30
33 11/14/2019 04:38:40 72.69, 102.15 90.78 11/14/2019 04:38:04 72.68, 102.23 90.77 3.11 36
34 11/14/2019 05:29:24 -72.68, -90.53 89.22 11/14/2019 05:28:46 -72.68, -90.44 89.23 3.23 38
35 11/14/2019 06:20:08 72.64, 76.87 90.75 11/14/2019 06:19:25 72.66, 76.86 90.77 1.83 43
36 11/14/2019 07:10:52 -72.64,-115.81 89.25 11/14/2019 07:10:07 -72.66,-115.82 89.23 2.27 45
37 11/14/2019 08:01:38 72.65, 51.48 90.77 11/14/2019 08:00:47 72.64, 51.48 90.77 0.94 51
38 11/14/2019 08:52:22 -72.64,-141.20 89.23 11/14/2019 08:51:29 -72.64,-141.19 89.23 0.41 53
39 11/14/2019 09:43:08 72.65, 26.10 90.79 11/14/2019 09:42:09 72.62, 26.10 90.77 3.60 59
40 11/14/2019 10:33:52 -72.65,-166.58 89.20 11/14/2019 10:32:51 -72.62,-166.57 89.23 3.10 61
41 11/14/2019 11:24:37 72.60, 0.82 90.76 11/14/2019 11:23:31 72.60, 0.72 90.77 3.40 66
42 11/14/2019 12:15:21 -72.60, 168.14 89.23 11/14/2019 12:14:13 -72.60, 168.05 89.23 3.04 68
43 11/14/2019 13:06:07 72.61, -24.57 90.79 11/14/2019 13:04:52 72.63, -24.56 90.82 2.35 75
44 11/14/2019 13:56:50 -72.56, 142.86 89.26 11/14/2019 13:55:36 -72.53, 142.57 89.28 10.15 74
45 11/14/2019 14:47:31 72.31, -49.34 90.49 11/14/2019 14:46:20 72.30, -50.55 90.52 40.98 71
46 11/14/2019 15:38:14 -72.26, 118.08 89.56 11/14/2019 15:37:03 -72.26, 116.68 89.52 47.42 71
47 11/14/2019 16:28:55 72.01, -74.13 90.20 11/14/2019 16:27:47 72.03, -76.42 90.28 78.85 68
48 11/14/2019 17:19:38 -71.95, 93.28 89.85 11/14/2019 17:18:31 -71.93, 90.72 89.81 88.59 67




NCC Satellite Simultaneous Nadir Overpasses (SNOs) Prediction Service
